TimeIST,TemperatureF,Dew PointF,Humidity,Sea Level PressureIn,VisibilityMPH,Wind Direction,Wind SpeedMPH,Gust SpeedMPH,PrecipitationIn,Events,Conditions,WindDirDegrees,DateUTC
12:00 AM,64.4,46.4,52,30.06,1.2,ENE,4.6,-,N/A,,Haze,70,2013-02-01 18:30:00
1:00 AM,62.6,46.4,55,30.06,1.2,ESE,4.6,-,N/A,,Smoke,120,2013-02-01 19:30:00
2:00 AM,62.6,46.4,55,30.06,1.2,East,4.6,-,N/A,,Smoke,80,2013-02-01 20:30:00
2:30 AM,61,45,45,30.03,1,Calm,Calm,,,,Smoke,,2013-02-01 21:00:00
2:30 AM,60.8,44.6,55,30.06,1.2,Calm,Calm,-,N/A,,Haze,0,2013-02-01 21:00:00
3:00 AM,60.8,44.6,55,30.04,1.2,East,4.6,-,N/A,,Smoke,100,2013-02-01 21:30:00
4:00 AM,62.6,46.4,55,30.04,1.2,East,4.6,-,N/A,,Smoke,80,2013-02-01 22:30:00
5:00 AM,60.8,46.4,59,30.04,1.2,Variable,3.5,-,N/A,,Smoke,0,2013-02-01 23:30:00
5:30 AM,62,45,42,30.02,1,East,4.6,,,,Smoke,90,2013-02-02 00:00:00
6:00 AM,62.6,46.4,55,30.04,1.2,East,5.8,-,N/A,,Smoke,80,2013-02-02 00:30:00
6:30 AM,60.8,46.4,59,30.06,1.2,East,3.5,-,N/A,,Haze,90,2013-02-02 01:00:00
7:00 AM,59.0,46.4,63,30.06,1.2,Calm,Calm,-,N/A,,Smoke,0,2013-02-02 01:30:00
8:00 AM,60.8,46.4,59,30.09,1.2,Calm,Calm,-,N/A,,Smoke,0,2013-02-02 02:30:00
8:30 AM,60,50,60,30.08,1,Calm,Calm,,,,Smoke,,2013-02-02 03:00:00
9:00 AM,62.6,48.2,59,30.12,1.2,Variable,2.3,-,N/A,,Smoke,0,2013-02-02 03:30:00
10:00 AM,64.4,46.4,52,30.12,1.6,ENE,5.8,-,N/A,,Haze,70,2013-02-02 04:30:00
11:00 AM,66.2,46.4,49,30.12,1.6,Variable,3.5,-,N/A,,Haze,0,2013-02-02 05:30:00
11:30 AM,68,47,36,30.09,1,ESE,4.6,,,,Haze,110,2013-02-02 06:00:00
1:00 PM,71.6,42.8,35,30.06,1.9,East,5.8,-,N/A,,Haze,100,2013-02-02 07:30:00
2:00 PM,73.4,42.8,33,30.04,1.9,SE,6.9,-,N/A,,Haze,130,2013-02-02 08:30:00
2:30 PM,74,41,20,29.99,1,East,6.9,,,,Haze,90,2013-02-02 09:00:00
2:30 PM,73.4,41.0,31,30.04,1.9,East,8.1,-,N/A,,Haze,90,2013-02-02 09:00:00
3:00 PM,75.2,39.2,27,30.04,1.9,Variable,5.8,-,N/A,,Haze,0,2013-02-02 09:30:00
4:00 PM,75.2,44.6,34,30.01,1.9,SE,8.1,-,N/A,,Haze,140,2013-02-02 10:30:00
5:00 PM,73.4,46.4,38,30.01,1.9,SSE,3.5,-,N/A,,Haze,150,2013-02-02 11:30:00
5:30 PM,72,45,27,29.97,1,SE,4.6,,,,Haze,140,2013-02-02 12:00:00
5:30 PM,71.6,46.4,41,30.01,1.9,SSE,4.6,-,N/A,,Haze,150,2013-02-02 12:00:00
6:00 PM,69.8,48.2,46,30.01,1.9,SE,3.5,-,N/A,,Haze,140,2013-02-02 12:30:00
7:00 PM,68.0,48.2,49,30.04,1.2,ESE,4.6,-,N/A,,Smoke,120,2013-02-02 13:30:00
8:00 PM,66.2,50.0,56,30.06,1.2,Variable,3.5,-,N/A,,Smoke,0,2013-02-02 14:30:00
8:30 PM,64,49,49,30.03,1,ENE,2.3,,,,Smoke,70,2013-02-02 15:00:00
9:00 PM,64.4,48.2,56,30.06,1.2,Variable,2.3,-,N/A,,Smoke,0,2013-02-02 15:30:00
10:00 PM,62.6,48.2,59,30.06,1.2,Calm,Calm,-,N/A,,Smoke,0,2013-02-02 16:30:00
11:00 PM,60.8,48.2,63,30.06,1.2,Calm,Calm,-,N/A,,Smoke,0,2013-02-02 17:30:00
11:30 PM,59,50,64,30.04,1,Calm,Calm,,,,Smoke,,2013-02-02 18:00:00
11:30 PM,60.8,48.2,63,30.06,1.2,Calm,Calm,-,N/A,,Smoke,0,2013-02-02 18:00:00